GW1109 Weather Reports


time (UTC)temp
C
wind
direction
speed
KPH
gust
KPH
rain 1hr
cm
rain 24hr
cm
rain mn
cm
humidity
%
barometer
mb
20260504044545 3 250 3.2 14.5 0.00 0.00 0.00 62 1008.3
20260504043055 3 259 6.4 14.5 0.00 0.00 0.00 61 1008.2
20260504041544 3 201 8.0 12.9 0.00 0.00 0.00 61 1008.1
20260504040046 3 234 4.8 14.5 0.00 0.00 0.00 61 1008.1
20260504034549 3 257 4.8 12.9 0.00 0.00 0.00 60 1008.0
20260504033048 5 264 3.2 14.5 0.00 0.00 0.00 56 1007.9
20260504031546 6 242 6.4 16.1 0.00 0.00 0.00 51 1007.8
20260504030047 6 288 4.8 12.9 0.00 0.00 0.00 51 1007.7
20260504024548 6 273 4.8 16.1 0.00 0.00 0.00 51 1007.7
20260504023049 5 284 6.4 14.5 0.00 0.00 0.00 53 1007.7
20260504021547 5 293 3.2 8.0 0.00 0.00 0.00 56 1007.7
20260504020125 5 290 0.0 6.4 0.00 0.00 0.00 56 1007.7
20260504014559 5 242 1.6 4.8 0.00 0.05 0.00 57 1007.8
20260504013055 5 271 1.6 6.4 0.00 0.05 0.00 53 1007.8
20260504011546 5 317 3.2 11.3 0.00 0.05 0.00 54 1007.6
20260504010048 5 263 3.2 11.3 0.00 0.05 0.00 54 1007.4
20260504004618 6 270 6.4 14.5 0.00 0.15 0.00 50 1007.2
20260504003051 6 257 8.0 16.1 0.00 0.15 0.00 50 1007.0
20260504001617 6 273 6.4 12.9 0.00 0.15 0.00 50 1006.9
20260504000049 7 310 6.4 16.1 0.00 0.15 0.00 47 1006.6
20260503234547 7 319 14.5 25.7 0.00 0.23 0.00 45 1006.3
20260503233049 7 284 14.5 30.6 0.00 0.23 0.00 44 1006.2
20260503231541 8 315 19.3 33.8 0.00 0.23 0.00 41 1005.9
20260503230107 8 279 11.3 29.0 0.00 0.23 0.00 42 1005.8
20260503224546 8 307 27.4 45.1 0.00 0.25 0.00 39 1005.5
20260503223045 8 310 17.7 37.0 0.00 0.25 0.00 39 1005.1
20260503221545 8 315 20.9 41.8 0.00 0.25 0.00 39 1005.2
20260503220048 9 335 16.1 33.8 0.00 0.25 0.00 41 1004.9
20260503214555 8 355 19.3 30.6 0.00 0.30 0.00 41 1004.8
20260503213047 8 311 14.5 30.6 0.00 0.30 0.00 42 1004.7
20260503211548 9 302 16.1 32.2 0.00 0.30 0.00 43 1004.6
20260503210046 9 312 14.5 30.6 0.00 0.30 0.00 44 1004.3
20260503204545 8 298 24.1 38.6 0.00 0.48 0.00 43 1004.2
20260503203102 9 328 19.3 33.8 0.00 0.48 0.00 46 1004.0
20260503201541 10 289 19.3 32.2 0.00 0.48 0.00 43 1003.9
20260503200049 10 315 12.9 32.2 0.00 0.48 0.00 45 1003.9
20260503194547 9 355 17.7 32.2 0.00 0.71 0.00 47 1004.1
20260503193045 9 300 16.1 33.8 0.00 0.71 0.00 46 1004.0
20260503191547 10 305 12.9 30.6 0.00 0.71 0.00 52 1004.2
20260503190044 10 310 16.1 30.6 0.00 0.71 0.00 51 1004.3
20260503184540 9 360 19.3 32.2 0.00 0.86 0.00 52 1004.3
20260503183047 9 285 14.5 33.8 0.00 0.86 0.00 51 1004.3
20260503181557 9 332 16.1 27.4 0.00 0.86 0.00 51 1004.3
20260503180053 8 338 14.5 25.7 0.00 0.86 0.00 54 1004.4
20260503174546 8 298 8.0 20.9 0.00 0.91 0.00 62 1004.4
20260503173044 8 355 8.0 17.7 0.00 0.91 0.00 63 1004.5
20260503171540 7 314 12.9 22.5 0.00 0.91 0.00 63 1004.5
20260503081550 9 5 1.6 4.8 0.00 1.12 0.00 100 1007.1